Theta_e
292 292 291 292 291 291 291 290 290 290 289 290 290 289 290 290 290 289 289 289 289 289 289 288 288 288 288 287 287 285 285 284 285 284 284 284 283 283 282 281 281 280 280 280 279 279 278 278 278 278 277 277 276 276 276 276 276 275 275 275 275 275
294 293 292 291 291 290 290 289 289 289 290 289 289 290 289 288 289 289 289 289 289 289 289 288 288 288 287 287 286 285 285 284 284 284 283 283 283 282 282 281 281 280 280 279 279 278 278 278 277 277 277 276 276 276 275 275 275 275 274 274 275 275
293 292 291 290 288 287 287 288 289 289 289 288 289 289 289 288 289 289 289 289 289 288 288 288 287 287 287 286 285 285 284 284 284 284 283 282 282 282 281 281 281 280 280 279 279 278 278 277 277 277 277 276 275 275 275 275 275 274 274 274 273 274
292 291 288 287 286 287 288 289 287 287 288 289 289 288 288 288 288 288 288 288 288 287 287 287 287 286 286 285 285 284 284 284 284 283 282 282 282 281 281 281 281 280 279 279 278 278 277 277 277 276 276 276 275 274 274 274 274 274 273 273 273 273
293 292 289 288 288 289 287 286 287 288 288 288 288 288 288 288 289 289 288 288 287 287 287 287 286 285 285 285 284 284 284 284 283 282 282 281 281 281 281 281 280 280 279 278 278 277 277 277 276 276 276 275 275 274 274 274 274 273 273 272 272 272
290 291 291 291 290 289 289 288 288 288 288 288 288 288 288 288 288 288 288 287 287 287 286 286 285 284 284 284 285 284 284 283 282 282 281 281 281 280 280 280 279 279 278 278 277 277 276 276 276 275 275 275 275 274 274 273 273 273 273 272 272 271
289 292 292 292 292 291 290 289 289 288 288 288 288 288 289 288 288 287 287 287 287 286 286 285 285 284 284 284 285 284 284 283 282 281 281 280 280 280 279 279 279 278 278 277 277 276 276 276 275 275 275 274 274 274 273 273 273 272 272 272 271 272
291 291 291 292 292 291 291 291 290 290 289 288 288 288 288 288 288 287 287 287 286 286 285 285 284 284 284 284 284 284 283 282 281 281 281 280 279 279 279 278 278 278 277 277 277 276 276 275 275 274 274 274 273 273 273 272 272 272 271 271 271 271
289 291 292 292 291 291 291 291 291 291 290 289 288 288 288 288 287 287 287 286 286 286 285 285 284 285 285 285 284 284 283 282 281 280 280 280 279 278 278 278 277 277 277 277 276 275 275 274 274 274 273 273 272 272 272 271 271 271 270 270 270 271
292 292 291 290 291 291 291 291 291 291 290 290 289 288 288 288 287 287 286 286 286 285 285 285 285 285 285 284 284 283 282 282 281 280 280 279 279 278 278 277 277 276 276 276 275 275 274 274 273 273 272 272 271 271 271 271 270 270 270 270 270 270
294 294 294 293 291 290 291 293 292 291 290 290 289 288 287 288 287 287 286 286 286 285 285 285 285 285 284 283 283 282 282 281 280 280 279 278 278 278 277 277 276 275 275 274 274 273 273 273 273 272 272 271 271 271 270 270 270 270 269 269 269 270
293 294 294 295 295 294 294 294 294 294 292 291 290 289 288 287 287 287 286 286 286 286 286 285 284 284 283 283 282 282 281 281 280 279 278 277 277 277 276 276 275 275 274 273 272 272 272 272 272 274 276 275 271 270 270 270 270 270 270 270 270 270
294 294 294 294 295 295 295 294 294 293 292 291 290 289 288 287 287 287 287 286 287 286 286 285 284 283 283 283 282 282 281 280 279 278 277 277 276 275 275 275 274 273 273 273 272 271 271 272 272 277 278 278 277 271 270 269 270 270 270 270 270 270
290 291 292 293 294 294 294 293 292 291 290 290 288 289 288 287 287 286 286 286 286 286 285 285 284 283 282 282 281 280 280 279 277 277 276 275 275 274 274 273 273 273 272 272 271 271 271 271 275 279 280 279 279 275 270 270 270 270 271 271 271 272
288 289 290 291 292 293 293 293 292 292 291 290 289 288 286 286 286 286 286 286 285 285 285 284 283 282 281 281 281 280 278 277 277 276 275 275 274 273 272 273 273 272 272 271 271 270 271 270 277 280 281 280 280 278 273 270 271 271 271 271 272 273
287 288 289 289 290 291 292 293 292 292 292 290 286 285 286 286 286 286 286 286 285 284 284 283 282 281 281 280 279 278 277 276 276 276 275 274 273 272 272 272 272 271 271 271 271 270 270 270 276 280 281 281 280 279 275 271 271 272 273 273 274 274
286 287 287 288 289 290 290 290 290 290 290 288 285 285 285 285 285 285 285 284 284 283 283 282 281 281 280 279 278 277 276 276 276 275 274 273 273 272 272 271 271 271 270 270 270 270 270 270 277 281 282 282 281 280 276 272 273 274 274 274 275 275
285 286 287 288 288 288 288 288 288 287 288 287 285 284 283 284 284 284 284 283 283 283 283 282 281 280 279 278 277 276 276 275 275 274 274 273 272 272 272 271 271 270 270 270 270 270 269 270 277 281 282 282 282 282 276 274 274 274 274 274 275 275
285 286 287 287 286 286 287 286 285 285 286 285 283 281 281 282 283 283 283 283 283 283 283 282 281 280 278 277 276 275 275 275 274 274 273 272 272 272 271 271 271 270 270 270 270 270 270 270 276 281 282 282 283 281 276 275 274 274 274 274 274 274
286 287 287 287 287 287 284 281 281 282 282 281 278 277 278 278 281 282 282 283 283 283 282 282 281 279 278 276 276 275 276 275 275 274 272 272 271 271 271 270 270 270 270 270 269 270 270 270 275 282 282 282 282 280 275 275 273 273 272 272 273 272
286 287 287 288 287 287 283 280 279 280 278 277 276 276 276 278 279 278 279 280 280 279 279 279 280 279 277 276 276 276 275 275 274 273 272 272 272 271 271 270 270 269 269 270 270 272 271 270 275 281 282 282 282 279 275 274 273 272 272 271 271 272
287 287 287 287 287 286 283 281 282 281 279 277 276 276 277 277 276 276 277 278 278 276 277 278 279 279 278 277 276 276 275 275 273 272 271 272 271 271 270 270 269 269 269 270 270 270 271 270 274 278 281 281 281 280 274 273 272 271 271 271 270 270
287 286 287 288 288 286 284 282 282 283 280 277 277 279 279 277 277 278 277 276 276 277 278 278 279 278 277 276 275 275 274 274 273 272 271 271 270 270 269 269 269 269 268 269 269 270 270 270 273 276 281 281 281 280 276 272 272 271 271 270 270 270
286 286 287 288 288 287 285 282 282 283 281 279 281 282 277 276 277 276 277 278 278 277 278 278 278 278 276 275 275 274 273 273 272 271 271 270 270 269 268 268 268 268 268 268 268 268 268 270 274 274 279 280 281 280 278 273 272 272 271 270 270 271
285 286 286 287 287 287 287 283 282 283 281 280 283 279 275 275 275 276 276 277 277 276 277 276 276 276 275 274 274 273 272 271 270 270 270 269 269 269 268 268 267 267 267 266 267 268 268 269 271 276 276 279 280 281 279 276 274 276 272 270 270 271
285 285 286 287 287 287 287 286 284 283 281 282 283 278 273 273 273 273 274 275 276 275 274 275 275 274 274 273 273 272 271 270 269 269 269 269 268 268 267 267 267 267 266 265 266 266 267 269 270 274 277 277 280 280 280 278 277 277 273 272 272 273
284 285 285 286 286 286 286 286 285 283 282 285 282 281 278 275 274 275 275 275 274 274 274 273 273 273 272 272 272 271 270 269 269 268 269 269 268 268 267 267 266 266 266 266 265 265 266 268 269 271 275 278 279 280 280 279 278 278 277 273 273 273
283 283 283 283 285 285 286 286 286 285 286 286 283 281 279 276 276 276 276 274 274 273 273 272 272 272 272 272 272 271 271 269 269 268 268 268 268 268 268 266 266 266 266 266 266 266 266 267 269 270 272 275 277 278 279 278 278 278 278 274 272 273
281 281 281 281 283 284 285 285 286 286 286 286 285 281 277 276 276 276 275 274 273 272 272 272 271 271 271 271 271 271 270 269 269 269 268 268 268 268 267 266 265 266 266 266 266 266 267 267 268 269 271 272 273 274 275 276 276 277 277 273 272 273
279 279 280 280 281 283 283 284 285 286 286 285 285 278 276 276 276 276 276 274 273 272 271 272 269 269 270 270 270 270 269 269 269 269 268 268 268 268 267 265 265 266 266 266 266 266 266 266 267 268 269 270 271 271 272 273 272 272 271 269 269 268
278 278 278 279 280 281 282 283 284 285 285 285 284 277 276 276 275 275 274 273 272 271 270 271 270 270 270 270 270 270 270 269 269 269 269 270 270 270 268 267 266 267 268 268 267 266 266 266 266 267 272 270 273 270 270 270 270 269 269 270 271 265
276 276 276 277 278 279 280 281 282 284 285 285 282 277 277 276 275 274 273 272 271 270 269 269 270 269 269 269 269 269 268 270 272 271 269 269 272 274 274 272 268 269 269 269 269 269 267 266 267 273 274 274 274 274 274 273 273 272 270 272 273 267
274 274 274 275 277 277 278 279 280 281 283 283 282 278 277 277 276 274 273 271 270 270 269 269 269 269 269 269 268 268 267 267 269 273 274 272 272 274 275 275 274 274 274 271 268 270 273 272 273 275 275 275 275 275 275 275 275 275 274 274 269 263
272 272 273 273 274 275 275 276 277 278 279 280 281 279 277 276 276 276 275 273 271 270 269 269 269 268 268 267 268 267 266 266 266 268 273 274 273 274 275 276 275 275 275 275 272 270 270 273 275 276 276 276 276 276 276 276 276 275 275 274 271 260
271 271 271 271 271 271 271 270 271 273 274 275 277 278 277 276 276 276 276 275 272 270 269 268 268 267 267 267 266 266 266 265 265 265 266 270 274 275 275 276 276 276 276 275 274 274 273 274 275 277 277 277 277 277 276 276 276 276 275 273 263 259
267 267 267 267 267 267 267 268 269 270 272 273 275 277 277 277 277 276 277 276 273 270 269 268 268 267 267 267 267 266 266 266 266 266 267 267 268 271 274 276 277 277 276 276 275 275 275 276 277 277 277 277 277 277 276 275 273 275 273 267 258 258
264 264 264 265 266 266 266 266 267 269 270 272 273 274 275 277 277 277 274 272 272 271 270 269 268 267 267 267 266 266 266 267 267 267 268 268 268 268 269 270 272 276 276 274 275 276 277 277 278 278 277 277 277 276 276 275 269 264 261 258 256 256
262 262 262 263 263 263 263 264 266 267 268 270 272 274 275 276 276 276 276 275 272 271 270 269 268 267 267 266 266 267 267 267 267 267 268 269 269 269 269 270 271 272 275 276 276 277 278 278 278 278 277 276 276 276 275 265 262 259 258 256 255 254
Wind_Speed
11 12 14 14 13 11 11 10 8 8 10 13 14 18 20 18 13 10 10 11 12 13 16 17 16 14 14 12 10 10 12 13 13 14 14 11 12 12 12 13 13 12 12 12 12 11 12 10 10 10 10 10 9 8 8 8 8 7 7 5 6 5
13 13 13 13 13 12 9 9 9 12 13 11 12 12 9 9 14 16 16 16 15 14 13 13 14 15 14 13 12 12 14 13 12 12 12 15 12 13 14 14 15 15 15 13 13 12 12 12 10 11 11 10 9 9 8 8 8 7 7 6 5 5
10 9 7 7 5 5 7 9 14 14 10 11 13 15 16 15 16 14 16 14 16 15 16 16 16 16 14 12 13 13 13 11 12 12 12 8 13 14 15 16 16 16 15 15 14 14 13 13 12 11 10 10 9 8 8 8 8 8 7 7 6 5
6 5 4 4 5 6 10 12 8 8 13 16 15 12 11 14 15 15 17 15 15 16 16 15 13 12 11 13 13 14 13 12 12 12 10 14 13 13 15 15 14 14 15 15 15 14 13 13 13 12 11 11 10 9 7 9 9 8 8 7 7 6
6 4 5 6 9 9 8 6 10 13 14 12 12 15 18 18 18 16 14 13 14 16 16 14 12 12 14 15 13 14 15 13 11 10 13 12 12 12 13 14 14 15 15 15 15 14 14 14 13 11 11 11 12 11 10 9 9 10 10 9 8 8
5 6 8 10 10 10 12 12 11 11 10 12 13 16 19 16 16 15 14 14 15 15 12 13 12 13 14 15 15 16 15 13 12 11 12 12 10 13 12 12 13 13 14 15 14 14 14 13 12 11 11 12 12 11 11 10 10 9 9 9 8 8
7 9 10 11 10 9 9 10 10 11 13 13 14 17 18 15 13 11 13 14 16 14 14 14 13 14 15 16 15 16 15 14 13 12 14 12 12 12 11 12 12 13 14 15 15 14 14 13 13 13 12 10 10 10 10 11 10 9 9 8 8 8
9 8 9 9 9 10 10 11 12 12 13 14 14 14 13 13 12 13 14 13 14 14 16 15 14 16 18 18 16 16 15 13 12 13 12 13 14 13 12 14 13 14 15 13 13 13 13 12 12 12 12 12 11 10 9 9 9 9 8 8 8 8
10 11 11 10 9 8 8 9 11 11 12 13 12 13 13 13 12 13 14 15 15 15 16 16 17 18 18 18 17 14 13 14 15 14 15 14 14 14 14 13 13 12 13 13 12 13 13 12 11 11 11 11 11 11 11 10 9 8 8 8 8 7
9 11 10 7 10 10 8 9 11 12 13 15 14 13 12 10 12 15 15 15 15 16 17 17 18 18 17 15 13 13 13 13 13 14 13 13 15 15 16 16 15 12 11 12 12 12 11 12 12 11 11 11 11 10 10 10 10 9 8 8 7 7
13 14 16 14 9 9 11 11 12 12 12 12 12 11 14 14 13 14 15 15 16 17 16 16 15 13 12 13 14 14 14 15 15 13 13 13 14 12 14 13 14 14 12 11 11 12 11 12 12 11 12 12 11 10 11 11 10 10 9 8 8 7
14 15 16 15 14 14 15 14 14 15 15 15 14 13 13 10 14 15 16 16 18 17 16 15 13 13 13 14 15 16 16 14 14 14 14 14 14 13 12 13 13 13 14 14 12 11 11 11 9 12 20 16 12 12 10 9 9 10 8 9 8 8
16 16 15 15 16 17 16 16 15 13 13 14 11 12 12 12 15 15 15 17 17 16 14 12 12 13 15 16 14 12 13 14 13 13 13 13 12 13 13 13 14 13 13 14 14 14 12 11 10 21 22 22 21 13 11 11 10 9 9 9 9 9
18 19 18 17 17 17 15 15 14 13 13 13 11 14 11 12 13 14 15 17 14 13 13 13 13 13 14 12 14 13 13 12 12 13 13 13 13 13 12 14 15 15 13 12 13 13 13 11 15 24 24 24 24 18 11 10 10 10 9 10 10 9
16 17 18 19 18 17 17 16 14 14 14 13 14 8 7 12 13 14 15 14 12 13 13 12 13 14 13 15 14 13 13 15 15 15 15 17 15 12 14 15 14 14 13 13 14 13 12 11 19 24 25 24 24 23 16 9 10 10 10 10 10 10
14 14 15 16 18 18 17 15 13 14 13 9 4 6 11 11 13 13 14 12 12 13 13 12 13 13 14 12 13 13 15 15 17 16 14 12 12 14 14 12 15 13 13 14 14 13 12 12 19 25 25 24 24 24 17 10 11 10 10 11 10 9
16 17 18 19 19 17 15 14 12 11 12 9 6 5 7 9 11 12 12 12 12 10 11 12 13 15 14 14 13 13 14 16 14 14 13 13 15 15 16 16 15 14 13 12 11 11 11 11 21 24 25 25 25 25 17 10 10 9 9 9 10 10
15 16 16 16 16 16 13 12 12 10 12 7 6 6 6 8 9 11 9 9 10 12 13 14 14 14 13 14 14 15 15 15 16 16 13 12 11 10 9 9 11 13 13 12 12 11 11 11 22 23 24 25 26 26 12 11 10 9 8 9 9 9
13 15 15 15 14 14 14 13 12 11 11 10 6 4 4 5 8 10 9 11 11 13 13 13 14 14 14 14 15 16 16 16 14 12 11 12 12 13 13 13 13 12 13 14 14 13 12 11 20 25 25 26 26 21 10 10 8 8 8 9 10 9
14 16 16 17 16 14 12 12 11 10 9 7 5 3 3 3 8 7 5 10 10 10 11 12 13 13 13 13 16 17 15 12 10 12 12 15 15 14 14 11 11 10 11 14 15 14 13 12 18 26 26 26 27 17 11 10 9 8 8 7 7 5
14 15 16 18 19 18 16 14 12 9 7 5 4 2 4 6 5 3 4 4 3 3 3 4 6 9 11 14 14 13 13 14 14 11 11 11 11 11 10 10 10 10 10 11 12 15 13 12 16 27 25 26 26 17 9 9 9 9 8 7 6 6
14 18 18 19 19 17 16 14 13 12 9 7 3 3 5 5 4 4 3 2 2 3 4 5 6 7 9 10 8 8 9 7 8 10 12 10 9 10 10 10 10 12 11 10 11 11 11 11 11 18 27 25 26 22 11 9 10 10 9 8 8 7
12 12 14 14 16 16 14 13 13 14 11 8 7 8 6 4 3 3 3 3 4 5 6 6 7 8 6 6 7 6 6 7 8 9 10 11 9 9 9 11 9 9 8 9 9 9 10 10 11 15 26 25 25 24 18 9 10 9 9 9 8 7
15 15 15 13 14 14 13 13 14 14 12 10 11 10 3 1 2 2 2 3 4 6 7 7 7 7 8 8 9 10 9 6 7 8 9 8 8 11 11 10 10 10 9 8 9 7 9 10 13 11 22 24 25 24 23 11 9 10 10 9 8 8
14 15 15 14 13 12 13 13 14 14 12 12 13 8 5 2 1 1 2 2 3 4 5 5 7 7 6 8 9 10 9 8 9 9 9 10 10 10 11 11 10 10 10 9 9 8 8 9 10 18 14 23 24 24 21 19 14 19 10 9 8 8
13 13 13 12 11 12 13 13 14 14 12 14 11 7 4 2 1 0 1 1 2 3 4 4 5 6 7 8 9 10 10 10 9 9 9 10 11 11 11 8 8 9 12 9 7 4 4 6 6 15 19 18 25 23 22 21 20 20 10 7 7 7
15 15 14 12 12 12 12 12 14 16 15 14 8 8 6 4 2 1 1 2 2 3 4 5 5 6 7 8 10 11 10 11 11 11 9 10 11 11 12 7 11 10 8 7 8 7 6 5 6 5 13 20 21 22 22 21 21 19 18 10 6 6
13 14 16 16 12 12 12 13 12 17 17 13 10 6 4 3 3 4 5 3 3 4 5 7 6 6 7 9 8 9 9 11 12 11 11 11 11 12 12 13 13 9 9 8 8 9 8 7 4 6 8 11 16 16 20 20 19 18 17 11 8 12
13 16 16 18 15 11 12 13 13 14 15 14 11 6 3 3 5 6 5 6 4 4 5 7 7 7 7 9 9 9 9 10 10 11 12 12 13 13 13 11 8 9 9 9 9 8 9 8 8 8 8 7 8 8 11 12 12 16 15 8 7 7
14 16 17 17 16 13 13 14 15 14 14 13 11 5 3 5 7 8 8 8 6 6 7 8 9 10 8 10 11 11 11 11 12 14 15 16 16 15 15 18 11 11 11 11 10 9 9 11 11 10 11 10 9 9 8 7 7 7 6 7 6 6
15 16 17 17 16 15 15 16 15 14 13 13 11 4 6 8 8 8 8 7 6 8 8 8 9 10 10 10 10 10 11 15 16 16 14 13 12 15 18 19 14 16 17 17 18 17 13 10 15 16 16 15 17 13 10 9 9 7 6 8 11 8
15 16 17 17 16 15 16 16 15 14 13 12 10 6 8 10 8 8 9 8 8 8 8 9 9 10 9 9 10 9 7 6 10 9 9 10 14 18 16 15 15 16 14 14 13 14 19 19 16 20 27 26 25 24 21 17 16 14 11 13 17 10
16 16 18 18 16 15 16 16 16 16 15 14 11 8 10 10 9 9 9 7 9 11 10 9 8 8 8 8 8 8 8 6 7 15 14 9 12 16 19 19 17 19 20 15 13 11 10 14 23 29 26 26 25 25 24 23 22 20 20 18 12 7
14 15 17 17 17 17 16 16 17 17 17 16 15 11 10 10 10 11 11 10 10 10 10 9 9 8 8 8 8 9 9 9 8 7 15 15 14 18 21 22 20 22 22 18 15 13 9 16 24 27 26 26 26 25 24 24 23 22 20 21 17 7
13 14 14 15 17 19 18 18 20 20 20 18 17 14 12 13 12 13 13 11 10 9 10 9 9 10 10 11 11 10 10 10 10 10 8 10 15 18 20 20 22 24 23 21 21 21 18 21 24 26 26 26 25 25 24 23 23 23 22 20 9 8
12 14 16 16 20 19 19 18 22 21 20 19 16 16 15 16 16 16 14 12 11 10 9 11 11 11 12 11 11 11 12 11 11 11 11 10 10 11 14 19 22 23 24 23 23 22 21 24 27 28 27 26 26 25 24 22 16 21 20 13 9 8
17 17 19 22 20 18 19 20 23 22 20 16 16 16 19 18 17 14 15 19 13 10 12 11 11 11 11 11 12 12 12 12 11 11 12 12 13 13 12 11 13 20 24 19 19 20 25 27 28 26 25 25 25 24 24 21 12 10 6 5 4 7
19 21 21 21 19 17 19 20 24 22 18 15 15 17 17 17 16 15 13 12 13 12 10 10 11 11 11 12 12 11 10 10 10 11 11 11 11 11 11 9 9 10 17 25 21 25 26 27 26 25 25 24 24 24 24 12 8 7 6 6 5 6
Wind_Direction
225 221 220 215 213 211 207 199 194 203 207 205 199 201 206 205 201 206 213 209 208 207 206 205 206 206 205 204 198 189 198 200 198 193 191 171 173 173 171 173 173 174 177 177 176 174 175 173 173 168 168 168 164 170 169 173 168 161 157 156 150 154
225 220 220 216 209 207 200 187 186 201 208 204 211 217 211 198 200 201 206 208 208 209 205 206 206 206 203 198 193 196 202 201 196 193 184 189 173 177 173 173 177 177 177 179 176 176 174 174 172 172 171 170 173 169 169 174 165 160 158 156 154 154
241 236 236 239 218 196 192 194 198 204 190 204 210 209 206 207 211 203 210 204 210 206 205 205 203 204 200 195 194 199 201 198 196 196 192 161 186 178 177 179 179 178 177 175 177 176 176 174 174 176 172 172 171 172 168 168 167 161 161 154 156 158
272 256 253 248 226 215 206 207 198 191 196 206 205 210 215 214 213 208 211 204 209 206 209 206 202 198 194 198 195 197 198 197 196 192 177 189 186 180 183 181 177 177 175 176 178 178 176 176 175 174 172 172 170 171 171 172 167 165 159 158 164 164
259 261 236 218 220 227 229 216 202 204 209 208 206 206 216 209 212 213 211 207 206 209 209 203 196 191 195 196 198 200 197 196 190 182 190 191 184 183 183 182 178 177 177 177 178 176 177 177 175 176 175 175 173 172 173 173 170 169 165 167 172 168
228 218 221 224 224 220 218 218 215 214 214 211 207 211 219 213 214 208 205 208 211 210 203 201 196 192 195 198 201 202 198 188 186 181 188 189 183 183 185 178 177 176 179 180 179 179 176 174 175 174 178 176 174 173 172 171 174 172 170 169 166 166
252 232 228 225 226 225 222 227 227 218 217 210 210 217 219 214 215 210 211 208 210 203 200 202 195 196 198 203 203 204 194 188 182 179 185 181 184 187 178 179 176 178 180 184 182 178 176 176 171 172 176 177 175 173 170 172 172 171 169 166 164 166
243 250 245 240 233 224 220 223 226 227 225 222 216 219 219 214 209 209 210 208 207 205 202 199 195 200 201 203 203 200 192 185 181 183 184 182 183 178 183 180 180 181 183 182 180 177 175 172 173 175 175 173 171 170 172 170 169 166 163 163 167 166
259 250 248 240 236 227 224 223 229 232 230 230 222 220 218 212 204 209 208 208 206 206 204 199 199 202 203 202 200 194 186 184 185 182 184 181 179 177 178 184 182 185 180 178 173 177 174 171 171 172 173 172 171 171 170 167 163 163 161 168 167 167
280 278 264 234 224 223 222 224 229 230 228 229 224 217 215 209 201 206 208 207 208 210 207 203 205 204 203 198 193 188 187 185 184 186 182 174 178 182 181 178 180 179 177 176 175 174 169 168 171 173 173 172 171 169 169 167 164 164 164 164 166 168
276 276 278 278 272 262 251 247 244 239 239 236 230 210 213 205 200 208 208 208 211 212 208 207 207 203 196 192 189 186 186 187 185 179 178 180 181 180 181 176 172 169 175 175 175 171 170 172 176 175 172 169 171 170 169 169 168 164 164 164 168 174
267 265 265 267 266 265 261 256 251 244 236 236 227 216 216 189 206 208 209 209 212 211 208 206 199 194 192 191 190 190 188 183 179 179 178 181 180 176 173 173 175 174 173 172 173 172 174 178 176 178 177 174 168 169 167 165 166 164 159 161 168 178
289 281 276 271 267 263 259 255 254 253 244 241 230 219 213 195 210 208 207 212 213 210 206 200 198 192 194 195 191 187 181 181 177 177 177 176 175 174 174 173 172 177 178 176 174 176 179 180 177 178 180 178 175 168 167 166 167 165 163 169 171 176
333 316 300 287 277 272 268 265 259 253 247 240 227 222 202 201 210 208 212 215 210 205 198 198 194 193 196 187 190 183 181 172 173 177 177 175 176 177 170 175 181 178 176 176 177 179 180 179 180 182 181 179 177 172 167 165 165 167 169 171 175 178
335 331 323 311 298 283 272 265 264 258 249 242 232 213 186 204 207 211 216 213 204 202 197 195 192 194 189 191 186 179 172 176 176 178 177 183 180 167 176 183 174 178 175 175 176 182 181 179 183 183 182 180 178 174 167 166 163 166 171 174 179 181
331 327 320 312 301 291 286 286 285 281 278 272 247 180 206 201 211 211 215 209 203 199 194 192 191 192 192 185 180 177 179 179 184 183 180 170 167 178 178 174 178 175 178 180 180 179 179 178 187 185 183 181 178 174 166 166 166 169 172 176 179 180
326 328 329 329 321 310 307 304 297 297 294 290 271 241 219 214 213 215 216 207 204 191 191 190 190 192 187 183 179 177 181 184 181 175 177 175 178 177 180 179 179 181 179 178 177 176 180 185 188 187 185 182 178 174 164 166 167 170 174 177 180 183
323 322 320 319 320 316 314 306 306 301 283 280 244 237 219 218 216 221 215 210 202 198 197 192 191 190 184 179 179 181 184 183 182 180 174 171 176 178 171 178 178 175 177 176 174 175 181 183 191 188 185 183 181 175 164 168 170 166 166 175 181 186
321 322 322 323 323 322 321 320 315 306 300 301 289 254 245 224 229 226 213 213 206 204 198 193 190 189 185 181 180 186 186 182 181 175 167 170 177 176 180 181 181 178 175 175 177 178 181 182 193 189 185 184 181 179 157 162 160 162 160 169 175 184
330 331 331 328 329 327 324 320 316 311 310 316 339 328 286 258 246 244 231 227 221 212 203 195 190 188 184 182 188 188 187 181 174 175 173 177 174 180 183 173 173 178 180 179 181 182 178 182 192 188 184 182 183 171 157 163 159 153 154 150 163 162
332 331 333 336 337 335 331 323 324 334 334 338 346 346 292 259 275 313 283 286 307 280 239 210 196 192 188 191 194 184 180 180 180 173 170 178 175 176 165 170 173 175 180 187 185 182 180 178 189 186 184 182 182 170 156 159 158 158 162 162 160 178
336 339 341 338 333 331 331 328 327 326 337 338 360 314 273 273 283 267 266 252 190 169 174 183 194 197 195 199 186 182 182 164 159 168 173 174 170 167 169 172 174 176 183 180 181 186 182 179 185 185 184 182 181 170 159 157 162 165 162 160 174 180
335 331 329 328 328 330 330 331 329 321 325 332 332 299 281 254 262 246 222 177 164 168 174 171 182 184 178 166 167 159 158 167 169 164 171 170 166 161 165 172 173 174 177 180 183 182 178 182 175 184 183 183 182 172 165 163 167 162 162 162 167 183
328 328 329 328 329 328 329 331 326 317 319 326 311 304 302 296 243 196 175 186 181 176 172 175 173 171 162 151 151 159 164 157 153 165 166 166 167 168 170 169 171 172 172 172 178 176 174 185 185 177 185 183 183 177 170 165 168 167 159 164 172 186
323 325 324 326 328 328 325 327 320 315 314 311 300 316 315 279 236 199 174 165 176 180 174 167 163 157 152 153 154 157 159 155 156 163 165 165 166 170 171 174 172 172 172 169 178 175 172 183 188 185 182 185 184 181 172 170 169 175 167 172 180 185
319 318 320 321 324 324 322 320 313 309 307 298 300 311 319 340 354 84 179 193 189 168 161 157 155 151 154 155 154 159 158 160 161 163 175 172 171 173 175 175 169 167 167 162 160 148 149 173 177 189 185 185 184 184 176 175 175 177 167 177 177 171
320 317 315 319 322 320 317 313 305 302 299 294 300 300 300 308 342 318 232 205 174 165 154 145 157 158 157 159 160 163 166 163 164 170 178 176 181 180 181 171 158 166 156 155 161 153 159 170 172 179 187 186 185 184 182 177 178 181 180 173 166 144
313 314 314 314 318 315 311 306 301 296 294 295 295 287 285 287 288 272 256 224 194 178 155 156 158 164 165 164 169 172 173 172 176 177 177 182 189 188 185 157 158 158 168 167 159 162 151 164 151 174 180 187 184 183 183 178 179 184 181 151 152 152
312 311 311 307 311 311 302 299 295 289 290 293 293 287 252 241 242 249 238 224 204 182 176 179 177 174 178 178 175 174 172 176 182 183 184 188 189 191 187 160 164 164 165 163 153 136 156 150 161 171 177 177 176 172 177 177 184 185 177 151 162 161
309 306 308 306 306 307 301 296 294 292 291 291 293 273 233 235 234 233 233 219 201 195 193 198 187 180 185 192 189 183 180 186 187 188 192 190 191 187 189 166 168 175 166 156 154 156 154 169 176 177 172 172 171 173 172 165 161 156 135 140 139 127
302 300 300 300 302 302 301 296 293 294 294 292 288 244 230 242 237 233 231 217 204 210 202 202 192 197 194 196 200 209 202 189 189 198 204 208 198 195 185 182 187 183 182 176 175 172 172 157 181 185 175 174 173 165 159 157 156 145 141 154 141 105
296 301 300 296 299 298 295 295 297 297 296 293 285 246 242 247 241 230 230 211 208 210 200 208 206 202 200 198 201 201 210 238 229 224 212 206 202 208 205 192 188 184 177 184 188 181 177 183 180 171 176 173 170 171 168 164 163 161 157 173 165 142
301 303 299 296 296 295 295 294 295 296 298 299 290 260 246 245 244 239 235 217 216 211 204 205 204 200 203 201 197 195 195 197 212 220 223 223 207 203 203 198 199 190 187 180 171 184 188 174 171 174 172 170 170 170 168 168 171 169 172 171 143 126
296 294 294 296 296 295 296 295 295 294 293 293 293 278 256 245 241 243 236 221 221 211 205 204 198 192 193 198 193 192 187 188 188 206 217 211 202 202 203 202 192 187 186 184 172 161 153 167 169 170 169 170 170 170 170 170 171 169 169 162 145 130
294 293 290 290 291 292 293 293 289 288 286 284 287 285 265 253 243 246 248 235 219 210 201 197 194 194 193 192 190 191 187 186 185 186 183 200 203 201 199 198 195 190 187 178 171 169 163 164 168 169 170 170 170 170 169 168 166 166 161 145 133 151
288 286 285 283 285 286 287 286 284 281 281 284 287 287 273 258 250 243 245 240 220 206 200 201 199 196 198 196 193 191 187 190 186 183 177 170 174 190 198 199 194 189 184 179 173 169 169 169 168 170 169 171 171 167 163 161 161 160 150 144 148 153
297 290 284 283 285 287 285 283 281 280 281 285 289 283 277 266 256 251 246 242 229 205 208 202 199 199 195 192 192 191 189 189 184 178 178 177 178 179 180 178 183 187 177 171 171 170 169 167 167 167 170 168 165 162 160 152 143 133 106 93 120 152
288 285 284 286 284 281 278 275 274 277 284 283 272 266 264 263 255 249 244 241 224 215 211 200 199 196 194 193 193 188 187 182 177 179 179 177 177 175 167 164 164 161 170 167 166 166 164 165 166 168 165 164 163 163 154 139 149 139 149 148 162 151